SYL735 UEEE-UHMP

Flight info

Callsign SYL735
Flight time 2h 51m
Altitude 35000
Route DOBUS6E DOBUS W290 LULEN W68 OLMIN N738 RESBU RESBU1L
Aircraft B737/M-SDE2E3FGHIRWXY/LB1

Departure

Time 2026-04-24 16:21
Airport Platon Oyunsky Yakutsk International Airport (UEEE)

Arrival

Time 2026-04-24 19:12
Airport Pevek Airport (UHMP)
Time Latitude Longitude Altitude Speed Heading
2026-04-24 16:08 62.08754 129.75167 330 ft 0 kts 269°
2026-04-24 16:15 62.08754 129.75196 327 ft 4 kts 269°
2026-04-24 16:16 62.08764 129.75298 327 ft 4 kts 214°
2026-04-24 16:16 62.08785 129.75326 328 ft 4 kts 211°
2026-04-24 16:17 62.08790 129.75333 328 ft 0 kts 211°
2026-04-24 16:19 62.08745 129.75339 328 ft 11 kts 149°
2026-04-24 16:19 62.08696 129.75533 330 ft 18 kts 121°
2026-04-24 16:20 62.08527 129.76083 331 ft 11 kts 126°
2026-04-24 16:20 62.08625 129.76364 330 ft 29 kts 37°
2026-04-24 16:20 62.08932 129.76860 328 ft 90 kts 37°
2026-04-24 16:21 62.10507 129.79435 658 ft 175 kts 38°
2026-04-24 16:21 62.11470 129.81102 1378 ft 183 kts 38°
2026-04-24 16:21 62.12464 129.82671 2405 ft 177 kts 36°
2026-04-24 16:22 62.13520 129.84309 2894 ft 202 kts 36°
2026-04-24 16:22 62.16016 129.88247 3846 ft 235 kts 37°
2026-04-24 16:22 62.17354 129.90390 4427 ft 249 kts 37°
2026-04-24 16:23 62.18774 129.92674 5189 ft 259 kts 37°
2026-04-24 16:23 62.20223 129.95013 6191 ft 263 kts 38°
2026-04-24 16:23 62.21432 129.97940 7095 ft 266 kts 63°
2026-04-24 16:24 62.22616 130.05525 8916 ft 273 kts 75°
2026-04-24 16:24 62.23138 130.09483 9826 ft 278 kts 75°
2026-04-24 16:24 62.23671 130.13527 10549 ft 288 kts 75°
2026-04-24 16:24 62.24246 130.17851 10755 ft 315 kts 75°
2026-04-24 16:25 62.24875 130.22547 10969 ft 339 kts 74°
2026-04-24 16:25 62.25542 130.27499 11492 ft 351 kts 74°
2026-04-24 16:25 62.26228 130.32577 12231 ft 356 kts 74°
2026-04-24 16:26 62.27620 130.42901 13876 ft 364 kts 75°
2026-04-24 16:26 62.28326 130.48153 14609 ft 368 kts 75°
2026-04-24 16:26 62.29755 130.58844 16150 ft 376 kts 75°
2026-04-24 16:27 62.30565 130.64222 16887 ft 382 kts 68°
2026-04-24 16:27 62.31712 130.69408 17630 ft 387 kts 64°
2026-04-24 16:27 62.32968 130.74566 18356 ft 391 kts 63°
2026-04-24 16:27 62.34255 130.79750 18981 ft 395 kts 63°
2026-04-24 16:28 62.35552 130.85010 19625 ft 399 kts 64°
2026-04-24 16:28 62.36843 130.90319 20253 ft 403 kts 64°
2026-04-24 16:28 62.39428 131.01153 21492 ft 410 kts 65°
2026-04-24 16:30 62.47210 131.34523 24709 ft 431 kts 65°
2026-04-24 16:30 62.48553 131.40339 25178 ft 433 kts 66°
2026-04-24 16:30 62.49901 131.46191 25637 ft 436 kts 66°
2026-04-24 16:31 62.51253 131.52079 26081 ft 439 kts 66°
2026-04-24 16:31 62.52616 131.58026 26510 ft 442 kts 66°
2026-04-24 16:31 62.53980 131.63998 26941 ft 444 kts 66°
2026-04-24 16:31 62.55350 131.70013 27353 ft 447 kts 66°
2026-04-24 16:32 62.56261 131.74021 27623 ft 448 kts 66°
2026-04-24 16:32 62.58109 131.82173 28145 ft 452 kts 67°
2026-04-24 16:32 62.59496 131.88312 28536 ft 454 kts 67°
2026-04-24 16:32 62.60886 131.94484 28901 ft 456 kts 67°
2026-04-24 16:33 62.62282 132.00701 29252 ft 459 kts 67°
2026-04-24 16:33 62.63679 132.06940 29659 ft 460 kts 67°
2026-04-24 16:33 62.65075 132.13185 30207 ft 457 kts 68°
2026-04-24 16:33 62.66457 132.19386 30697 ft 454 kts 68°
2026-04-24 16:34 62.67830 132.25566 31110 ft 454 kts 68°
2026-04-24 16:34 62.69202 132.31765 31445 ft 454 kts 68°
2026-04-24 16:34 62.70694 132.37847 31813 ft 457 kts 61°
2026-04-24 16:34 62.72541 132.43501 32219 ft 458 kts 56°
2026-04-24 16:35 62.74470 132.49009 32618 ft 457 kts 56°
2026-04-24 16:35 62.76397 132.54424 32966 ft 457 kts 56°
2026-04-24 16:35 62.78346 132.59907 33321 ft 456 kts 56°
2026-04-24 16:35 62.79627 132.63534 33560 ft 456 kts 56°
2026-04-24 16:36 62.83934 132.75891 34311 ft 454 kts 56°
2026-04-24 16:36 62.85834 132.81406 34575 ft 454 kts 56°
2026-04-24 16:36 62.87735 132.86953 34803 ft 455 kts 56°
2026-04-24 16:37 62.89638 132.92523 35055 ft 455 kts 56°
2026-04-24 16:37 62.91532 132.98083 35308 ft 455 kts 56°
2026-04-24 16:37 62.92784 133.01764 35484 ft 454 kts 56°
2026-04-24 16:37 62.95309 133.09207 35809 ft 455 kts 56°
2026-04-24 16:38 62.97202 133.14801 36026 ft 455 kts 56°
2026-04-24 16:38 62.99095 133.20408 36263 ft 455 kts 56°
2026-04-24 16:38 63.00955 133.25931 36518 ft 454 kts 56°
2026-04-24 16:38 63.02836 133.31527 36747 ft 455 kts 56°
2026-04-24 16:39 63.04715 133.37134 36949 ft 455 kts 56°
2026-04-24 16:39 63.06592 133.42750 37126 ft 456 kts 56°
2026-04-24 16:39 63.10375 133.54108 37118 ft 459 kts 56°
2026-04-24 16:40 63.14125 133.65419 37110 ft 454 kts 56°
2026-04-24 16:40 63.17838 133.76677 37124 ft 450 kts 56°
2026-04-24 16:41 63.21516 133.87885 37125 ft 448 kts 56°
2026-04-24 16:41 63.25173 133.99086 37127 ft 447 kts 56°
2026-04-24 16:42 63.28792 134.10223 37129 ft 447 kts 56°
2026-04-24 16:42 63.32434 134.21491 37132 ft 449 kts 56°
2026-04-24 16:43 63.36078 134.32818 37135 ft 451 kts 56°
2026-04-24 16:43 63.39725 134.44210 37136 ft 452 kts 56°
2026-04-24 16:44 63.43377 134.55675 37138 ft 454 kts 56°
2026-04-24 16:44 63.47028 134.67198 37142 ft 454 kts 56°
2026-04-24 16:45 63.50676 134.78769 37156 ft 455 kts 56°
2026-04-24 16:45 63.54312 134.90358 37140 ft 454 kts 56°
2026-04-24 16:46 63.57955 135.02033 37147 ft 453 kts 56°
2026-04-24 16:46 63.61562 135.13649 37153 ft 452 kts 57°
2026-04-24 16:47 63.65149 135.25264 37162 ft 451 kts 57°
2026-04-24 16:47 63.68718 135.36879 37167 ft 450 kts 57°
2026-04-24 16:48 63.72256 135.48452 37168 ft 450 kts 57°
2026-04-24 16:48 63.75793 135.60083 37173 ft 449 kts 57°
2026-04-24 16:49 63.79321 135.71743 37180 ft 448 kts 57°
2026-04-24 16:49 63.82835 135.83416 37183 ft 448 kts 57°
2026-04-24 16:50 63.86318 135.95049 37175 ft 448 kts 57°
2026-04-24 16:50 63.89243 136.04862 37181 ft 448 kts 57°
2026-04-24 16:51 63.92731 136.16622 37185 ft 448 kts 57°
2026-04-24 16:51 63.96207 136.28398 37181 ft 448 kts 57°
2026-04-24 16:52 63.99680 136.40228 37180 ft 449 kts 57°
2026-04-24 16:52 64.03143 136.52094 37184 ft 449 kts 57°
2026-04-24 16:53 64.06572 136.63908 37180 ft 449 kts 57°
2026-04-24 16:53 64.10019 136.75846 37216 ft 451 kts 56°
2026-04-24 16:54 64.13482 136.87901 37196 ft 454 kts 56°
2026-04-24 16:54 64.16365 136.97985 37194 ft 455 kts 56°
2026-04-24 16:55 64.19836 137.10192 37198 ft 457 kts 56°
2026-04-24 16:55 64.23309 137.22467 37196 ft 458 kts 56°
2026-04-24 16:56 64.26770 137.34766 37193 ft 458 kts 56°
2026-04-24 16:56 64.30219 137.47097 37203 ft 457 kts 56°
2026-04-24 16:57 64.33634 137.59367 37213 ft 456 kts 56°
2026-04-24 16:57 64.37054 137.71730 37212 ft 455 kts 56°
2026-04-24 16:58 64.40429 137.83997 37221 ft 454 kts 56°
2026-04-24 16:58 64.43804 137.96327 37224 ft 452 kts 57°
2026-04-24 16:59 64.47159 138.08653 37231 ft 451 kts 57°
2026-04-24 17:00 64.52169 138.27164 37230 ft 450 kts 57°
2026-04-24 17:00 64.57161 138.45683 37229 ft 450 kts 57°
2026-04-24 17:01 64.62101 138.64160 37231 ft 450 kts 57°
2026-04-24 17:02 64.67050 138.82823 37231 ft 450 kts 57°
2026-04-24 17:02 64.70320 138.95297 37242 ft 450 kts 57°
2026-04-24 17:03 64.75189 139.14102 37253 ft 450 kts 57°
2026-04-24 17:04 64.78426 139.26681 37247 ft 450 kts 57°
2026-04-24 17:04 64.83245 139.45533 37247 ft 450 kts 57°
2026-04-24 17:05 64.86463 139.58209 37242 ft 450 kts 57°
2026-04-24 17:06 64.91240 139.77162 37246 ft 450 kts 57°
2026-04-24 17:06 64.96014 139.96269 37248 ft 450 kts 57°
2026-04-24 17:07 64.99175 140.09012 37258 ft 449 kts 57°
2026-04-24 17:08 65.05464 140.34560 37276 ft 448 kts 58°
2026-04-24 17:08 65.08577 140.47295 37285 ft 448 kts 58°
2026-04-24 17:09 65.14786 140.72918 37296 ft 447 kts 58°
2026-04-24 17:10 65.20943 140.98627 37315 ft 446 kts 58°
2026-04-24 17:12 65.33038 141.50014 38084 ft 446 kts 58°
2026-04-24 18:54 69.64964 170.68714 2625 ft 139 kts 353°
2026-04-24 18:55 69.66790 170.67503 2233 ft 133 kts 352°
2026-04-24 18:55 69.67678 170.66900 2043 ft 132 kts 351°
2026-04-24 18:55 69.68596 170.66293 1842 ft 133 kts 351°
2026-04-24 18:56 69.69479 170.65687 1664 ft 130 kts 350°
2026-04-24 18:56 69.70361 170.65083 1506 ft 131 kts 350°
2026-04-24 18:56 69.71231 170.64495 1295 ft 129 kts 350°
2026-04-24 18:56 69.72100 170.63912 1113 ft 128 kts 349°
2026-04-24 18:57 69.72976 170.63317 906 ft 127 kts 349°
2026-04-24 18:57 69.73828 170.62741 727 ft 127 kts 349°
2026-04-24 18:57 69.74687 170.62161 554 ft 126 kts 348°
2026-04-24 18:57 69.75539 170.61583 378 ft 126 kts 348°
2026-04-24 18:58 69.76391 170.61008 219 ft 125 kts 348°
2026-04-24 18:58 69.77239 170.60428 60 ft 126 kts 345°
2026-04-24 18:58 69.78047 170.59815 57 ft 121 kts 345°
2026-04-24 18:58 69.79001 170.59207 859 ft 157 kts 350°
2026-04-24 18:59 69.80165 170.58625 2121 ft 174 kts 355°
2026-04-24 18:59 69.81390 170.57817 2905 ft 174 kts 342°
2026-04-24 18:59 69.82185 170.55958 4628 ft 135 kts 312°
2026-04-24 18:59 69.82813 170.53730 4951 ft 165 kts 323°
2026-04-24 19:00 69.83949 170.52036 4892 ft 205 kts 344°
2026-04-24 19:00 69.85140 170.49046 4739 ft 249 kts 303°
2026-04-24 19:01 69.83937 170.34676 4687 ft 284 kts 242°
2026-04-24 19:01 69.83202 170.29382 4695 ft 280 kts 253°
2026-04-24 19:01 69.82751 170.23973 4681 ft 273 kts 259°
2026-04-24 19:01 69.82431 170.18592 4683 ft 269 kts 262°
2026-04-24 19:02 69.81978 170.13378 4676 ft 268 kts 242°
2026-04-24 19:02 69.80810 170.09292 4698 ft 263 kts 212°
2026-04-24 19:02 69.79162 170.07314 4695 ft 255 kts 182°
2026-04-24 19:02 69.77437 170.07690 4703 ft 246 kts 158°
2026-04-24 19:03 69.75893 170.09687 4705 ft 242 kts 145°
2026-04-24 19:03 69.74447 170.12177 4705 ft 242 kts 143°
2026-04-24 19:03 69.73012 170.14750 4701 ft 243 kts 143°
2026-04-24 19:03 69.71634 170.17524 4671 ft 239 kts 129°
2026-04-24 19:04 69.70695 170.21348 4706 ft 232 kts 118°
2026-04-24 19:04 69.69839 170.25202 4698 ft 225 kts 118°
2026-04-24 19:04 69.68981 170.29014 4705 ft 229 kts 119°
2026-04-24 19:04 69.68132 170.32734 4691 ft 214 kts 119°
2026-04-24 19:05 69.67336 170.36191 4678 ft 201 kts 119°
2026-04-24 19:05 69.66582 170.39437 4667 ft 191 kts 119°
2026-04-24 19:05 69.65840 170.42615 4329 ft 190 kts 119°
2026-04-24 19:05 69.65129 170.45642 4096 ft 174 kts 119°
2026-04-24 19:06 69.64490 170.48344 4004 ft 154 kts 118°
2026-04-24 19:06 69.63910 170.50798 3965 ft 146 kts 118°
2026-04-24 19:06 69.63343 170.53199 3893 ft 144 kts 118°
2026-04-24 19:06 69.62779 170.55584 3834 ft 144 kts 118°
2026-04-24 19:07 69.62216 170.57962 3768 ft 144 kts 118°
2026-04-24 19:07 69.61650 170.60347 3712 ft 145 kts 118°
2026-04-24 19:07 69.61238 170.62907 3581 ft 141 kts 95°
2026-04-24 19:07 69.61285 170.65627 3450 ft 137 kts 72°
2026-04-24 19:08 69.61909 170.67596 3188 ft 148 kts 21°
2026-04-24 19:08 69.62950 170.67802 2989 ft 149 kts 11°
2026-04-24 19:08 69.63963 170.68201 2787 ft 148 kts 10°
2026-04-24 19:08 69.65002 170.68083 2579 ft 153 kts 359°
2026-04-24 19:09 69.66048 170.67751 2385 ft 149 kts 357°
2026-04-24 19:09 69.67104 170.67231 2146 ft 152 kts 352°
2026-04-24 19:09 69.68123 170.66588 1966 ft 153 kts 351°
2026-04-24 19:09 69.69169 170.65894 1729 ft 150 kts 350°
2026-04-24 19:10 69.70183 170.65206 1539 ft 150 kts 350°
2026-04-24 19:10 69.71186 170.64525 1358 ft 141 kts 349°
2026-04-24 19:10 69.72099 170.63908 1105 ft 131 kts 349°
2026-04-24 19:10 69.72956 170.63328 902 ft 123 kts 350°
2026-04-24 19:11 69.73799 170.62766 740 ft 125 kts 349°
2026-04-24 19:11 69.74644 170.62189 561 ft 124 kts 348°
2026-04-24 19:11 69.75482 170.61620 393 ft 124 kts 348°
2026-04-24 19:11 69.76320 170.61053 230 ft 124 kts 348°
2026-04-24 19:12 69.77158 170.60444 75 ft 124 kts 344°
2026-04-24 19:12 69.77964 170.59900 26 ft 105 kts 347°
2026-04-24 19:12 69.78464 170.59566 22 ft 42 kts 348°
2026-04-24 19:12 69.78666 170.59437 25 ft 14 kts 346°
2026-04-24 19:13 69.78729 170.59395 27 ft 14 kts 347°
2026-04-24 19:13 69.78813 170.59484 26 ft 7 kts 81°
2026-04-24 19:13 69.78824 170.59639 25 ft 8 kts 77°
2026-04-24 19:13 69.78836 170.59792 25 ft 8 kts 77°
2026-04-24 19:14 69.78844 170.59897 24 ft 1 kts 77°
2026-04-24 19:14 69.78847 170.59930 24 ft 3 kts 77°
2026-04-24 19:14 69.78853 170.60000 24 ft 4 kts 73°
2026-04-24 19:14 69.78856 170.60027 25 ft 0 kts 73°